Weather History for Bradford, PA

Change the Weather History Date:

Wednesday, January 8, 2014

  Actual Average Record
Temperature  
Mean Temperature 18 °F 21 °F  
Max Temperature 31 °F 29 °F 63 °F (1998)
Min Temperature 4 °F 14 °F -7 °F (1968)
Degree Days  
Heating Degree Days 47 38  
Month to date heating degree days 420 304  
Since 1 July heating degree days 3356 3360  
Cooling Degree Days 0 0  
Month to date cooling degree days 0 0  
Year to date cooling degree days 0 0  
Moisture  
Dew Point -3 °F    
Average Humidity 53    
Maximum Humidity 76    
Minimum Humidity 29    
Precipitation  
Precipitation T in 0.11 in 1.41 in (1965)
Month to date precipitation 0.56 0.92  
Year to date precipitation 0.56 0.92  
Sea Level Pressure  
Sea Level Pressure 30.36 in    
Wind  
Wind Speed 4 mph (SW)    
Max Wind Speed 14 mph    
Max Gust Speed 18 mph    
Visibility 9 miles    
Events Snow    
T = Trace of Precipitation, MM = Missing Value Source: NWS Daily Summary

Daily Weather History Graph

Daily Weather History Graph

Search for Another Location

Airport:

Trip Planner

Search our weather history database for the weather conditions in past years. The results will help you decide how hot, cold, wet, or windy it might be!

Date:

Astronomy

Jan. 08, 2014 Rise Set
Actual Time 7:41 AM EST 5:01 PM EST
Civil Twilight 7:10 AM EST 5:32 PM EST
Nautical Twilight 6:35 AM EST 6:07 PM EST
Astronomical Twilight 6:02 AM EST 6:40 PM EST
Moon 11:55 AM EST (1/8) 12:42 AM EST (1/8)
Length of Visible Light 10h 21m
Length of Day
9h 19m
First Quarter, 56% of the Moon is Illuminated
Jan 8
First Quarter
Jan 15
Full
Jan 24
Last Quarter
Jan 30
New
Feb 6
First Quarter

Hourly Weather History & Observations

Time (EST) Temp. Windchill Dew Point Humidity Pressure Visibility Wind Dir Wind Speed Gust Speed Precip Events Conditions
12:28 AM 12.9 °F 2.6 °F -9.9 °F 35% 30.17 in 10.0 mi Variable 6.9 mph - N/A   Mostly Cloudy
12:53 AM 8.1 °F -2.0 °F -9.9 °F 44% 30.33 in 7.0 mi WSW 5.8 mph - N/A   Overcast
1:27 AM 8.1 °F -6.2 °F -9.9 °F 44% 30.19 in 10.0 mi WSW 10.4 mph - N/A   Scattered Clouds
1:53 AM 8.1 °F -2.0 °F -9.9 °F 44% 30.35 in 10.0 mi WSW 5.8 mph - N/A   Clear
2:53 AM 6.1 °F -2.8 °F -9.9 °F 48% 30.35 in 10.0 mi Variable 4.6 mph - N/A   Clear
3:53 AM 8.1 °F -0.5 °F -9.0 °F 46% 30.37 in 9.0 mi West 4.6 mph - N/A   Partly Cloudy
4:53 AM 8.1 °F -0.5 °F -9.9 °F 44% 30.38 in 10.0 mi Variable 4.6 mph - N/A   Clear
5:53 AM 10.9 °F 2.9 °F -9.9 °F 39% 30.39 in 10.0 mi SW 4.6 mph - N/A   Partly Cloudy
6:03 AM 10.9 °F 4.7 °F -9.9 °F 39% 30.24 in 9.0 mi Variable 3.5 mph - N/A   Mostly Cloudy
6:28 AM 10.0 °F 1.8 °F -9.9 °F 40% 30.24 in 10.0 mi Variable 4.6 mph - N/A   Scattered Clouds
6:53 AM 8.1 °F 1.4 °F -9.9 °F 44% 30.40 in 10.0 mi Variable 3.5 mph - N/A   Clear
7:53 AM 10.9 °F 4.7 °F -9.9 °F 39% 30.41 in 10.0 mi SW 3.5 mph - N/A   Clear
8:53 AM 14.0 °F 6.5 °F -7.1 °F 39% 30.43 in 10.0 mi SW 4.6 mph - N/A   Overcast
9:53 AM 17.1 °F 6.6 °F -4.0 °F 39% 30.43 in 10.0 mi WSW 8.1 mph - N/A   Overcast
10:53 AM 19.9 °F - -2.0 °F 38% 30.43 in 10.0 mi Calm Calm - N/A   Overcast
11:53 AM 6.1 °F -2.8 °F -0.9 °F 73% 30.42 in 10.0 mi SSW 4.6 mph - N/A   Overcast
12:53 PM 10.0 °F -0.9 °F -2.0 °F 58% 30.40 in 10.0 mi South 6.9 mph - N/A   Overcast
1:53 PM 26.1 °F - -0.9 °F 31% 30.37 in 10.0 mi North - - 0.00 in   Overcast
2:11 PM 28.9 °F 18.2 °F -0.0 °F 29% 30.27 in 10.0 mi SSW 13.8 mph - N/A   Mostly Cloudy
2:49 PM 28.4 °F 19.7 °F -0.4 °F 29% 30.26 in 10.0 mi SSW 9.2 mph - N/A   Overcast
2:53 PM 27.0 °F 17.3 °F -0.0 °F 31% 30.36 in 10.0 mi South 10.4 mph - N/A   Overcast
3:53 PM 28.0 °F 22.8 °F -0.0 °F 30% 30.38 in 10.0 mi SW 4.6 mph - N/A   Overcast
4:53 PM 28.0 °F 22.8 °F 1.9 °F 33% 30.38 in 10.0 mi Variable 4.6 mph - 0.00 in   Overcast
5:53 PM 27.0 °F 23.0 °F 3.0 °F 36% 30.38 in 5.0 mi SSW 3.5 mph - 0.00 in Snow Light Snow
6:53 PM 26.1 °F 19.4 °F 3.9 °F 39% 30.40 in 8.0 mi SSW 5.8 mph - 0.00 in Snow Light Snow
7:53 PM 27.0 °F 23.0 °F 5.0 °F 39% 30.40 in 10.0 mi Variable 3.5 mph - 0.00 in   Overcast
8:53 PM 19.0 °F - 5.0 °F 54% 30.42 in 8.0 mi Calm Calm - N/A   Overcast
9:53 PM 28.0 °F 24.2 °F 5.0 °F 38% 30.40 in 10.0 mi Variable 3.5 mph - N/A   Overcast
10:18 PM 12.9 °F 6.9 °F 5.0 °F 71% 30.32 in 10.0 mi WSW 3.5 mph - N/A   Overcast
10:53 PM 12.9 °F - 6.1 °F 74% 30.43 in 10.0 mi Calm Calm - N/A   Overcast
11:53 PM 12.9 °F 5.2 °F 7.0 °F 77% 30.45 in 5.0 mi WSW 4.6 mph - 0.00 in Snow Light Snow